Zurück zum Katalog

STARLINK-36488

AktivKommunikationVLEO
NORAD 67306·PAYLOAD·🇺🇸 United States

Gestartet Jan 4, 2026 von Cape Canaveral Space Force Station

Loading…

Nächste Überflüge (nächste 24 Stunden)

TLE

AktuellSource: CelesTrak SupGP

Epoche: Sep 14, 2026, 14:13 UTC

1 67306C 26002B   26257.59284722  .00031548  00000+0  11433-2 0  2574
2 67306  43.0009 338.7373 0001183 277.4580 163.1619 15.27544071    14

Verfolge STARLINK-36488 in Echtzeit mit AllMySat

Download on the App Store